N3UC Weather Reports


time (UTC)temp
C
wind
direction
speed
KPH
gust
KPH
rain 1hr
cm
rain 24hr
cm
rain mn
cm
humidity
%
barometer
mb
20260507180515 17 68 1.6 6.4 0.00 0.20 0.13 50 1011.0
20260507175516 17 68 3.2 14.5 0.00 0.20 0.13 55 1011.3
20260507174516 17 0.0 6.4 0.00 0.20 0.13 54 1011.2
20260507173516 16 225 1.6 8.0 0.00 0.20 0.13 48 1011.4
20260507172516 16 0.0 4.8 0.00 0.20 0.13 51 1011.6
20260507171515 16 0.0 1.6 0.00 0.20 0.13 54 1011.9
20260507170515 16 0.0 8.0 0.00 0.20 0.13 54 1012.2
20260507165536 15 0.0 6.4 0.00 0.20 0.13 52 1012.5
20260507164515 15 0.0 0.0 0.00 0.20 0.13 53 1012.5
20260507163515 15 0.0 0.0 0.00 0.20 0.13 56 1012.8
20260507162515 15 0.0 0.0 0.00 0.20 0.13 57 1012.8
20260507161516 14 68 1.6 8.0 0.00 0.20 0.13 55 1012.9
20260507160516 14 0.0 0.0 0.00 0.20 0.13 55 1013.1
20260507155516 13 68 3.2 12.9 0.00 0.20 0.13 57 1013.2
20260507154516 13 0.0 0.0 0.00 0.20 0.13 56 1013.1
20260507153515 13 68 1.6 6.4 0.00 0.20 0.13 58 1013.2
20260507152515 13 68 1.6 3.2 0.00 0.20 0.13 58 1013.3
20260507151515 13 0.0 6.4 0.00 0.20 0.13 58 1013.5
20260507150520 12 0.0 0.0 0.00 0.20 0.13 58 1013.6
20260507145515 12 45 4.8 14.5 0.00 0.20 0.13 58 1013.7
20260507144515 12 0.0 0.0 0.00 0.23 0.13 59 1013.9
20260507143515 12 0.0 0.0 0.00 0.23 0.13 59 1013.9
20260507142515 11 0.0 0.0 0.00 0.25 0.13 59 1014.0
20260507141515 11 0.0 0.0 0.00 0.28 0.13 55 1013.9
20260507140515 11 0.0 0.0 0.00 0.30 0.13 57 1014.2
20260507135515 11 0.0 0.0 0.00 0.33 0.13 54 1014.2
20260507134515 11 0.0 3.2 0.00 0.33 0.13 38 1014.3
20260507133515 11 0.0 0.0 0.00 0.36 0.13 51 1014.5
20260507132515 11 0.0 0.0 0.00 0.38 0.13 56 1014.5
20260507131515 11 0.0 0.0 0.00 0.41 0.13 28 1014.3
20260507130515 11 0.0 0.0 0.00 0.46 0.13 48 1014.3
20260507125535 11 0.0 0.0 0.00 0.51 0.13 43 1014.3
20260507124515 11 0.0 0.0 0.00 0.61 0.13 14 1014.3
20260507123515 11 0.0 0.0 0.00 0.61 0.13 17 1014.2
20260507122515 11 0.0 0.0 0.00 0.61 0.13 26 1014.4
20260507121515 11 0.0 0.0 0.00 0.61 0.13 10 1014.2
20260507120515 11 0.0 0.0 0.00 0.64 0.13 13 1014.2
20260507115555 11 0.0 0.0 0.00 0.64 0.13 17 1014.2
20260507114515 11 0.0 0.0 0.00 0.66 0.13 32 1014.2
20260507113515 11 0.0 0.0 0.00 0.71 0.13 21 1013.9
20260507112515 11 0.0 0.0 0.00 0.74 0.13 17 1013.8
20260507111515 10 0.0 0.0 0.00 0.74 0.13 6 1013.6
20260507110535 10 0.0 0.0 0.00 0.74 0.13 1 1013.6
20260507105515 10 0.0 0.0 0.00 0.74 0.13 1 1013.6
20260507104515 10 0.0 0.0 0.00 0.74 0.13 1 1013.6
20260507103535 10 0.0 0.0 0.00 0.74 0.13 1 1013.4
20260507102535 10 0.0 0.0 0.00 0.74 0.13 1 1013.4
20260507101515 10 0.0 0.0 0.00 0.74 0.13 1 1013.3
20260507100515 10 0.0 0.0 0.00 0.74 0.13 1 1013.3
20260507095535 10 0.0 0.0 0.00 0.74 0.13 1 1013.2
20260507094515 11 0.0 0.0 0.00 0.74 0.13 1 1013.1
20260507093515 11 0.0 0.0 0.00 0.74 0.13 1 1013.1
20260507092515 11 0.0 0.0 0.00 0.74 0.13 1 1013.0
20260507091515 11 0.0 0.0 0.00 0.74 0.13 8 1012.7
20260507090515 10 0.0 0.0 0.00 0.74 0.13 1 1012.6
20260507085515 11 0.0 0.0 0.00 0.74 0.13 1 1012.8
20260507084515 11 0.0 0.0 0.00 0.74 0.13 1 1012.9
20260507083514 11 0.0 0.0 0.00 0.74 0.13 1 1012.8
20260507082515 11 0.0 0.0 0.00 0.74 0.13 1 1012.8
20260507081515 11 0.0 0.0 0.00 0.74 0.13 1 1012.8
20260507080514 11 0.0 0.0 0.00 0.74 0.13 1 1012.8
20260507080152 11 0.0 0.0 0.00 0.74 0.13 1 1012.6
20260507075516 11 0.0 0.0 0.00 0.74 0.13 1 1012.5
20260507074516 11 90 1.6 16.1 0.00 0.74 0.13 2 1012.0
20260507073515 11 0.0 0.0 0.00 0.74 0.13 1 1012.0
20260507072515 11 45 1.6 9.7 0.00 0.74 0.13 1 1012.1
20260507071515 11 90 1.6 4.8 0.00 0.74 0.13 1 1011.9
20260507070536 11 0.0 0.0 0.00 0.74 0.13 1 1012.1
20260507065515 11 248 1.6 8.0 0.00 0.74 0.13 1 1012.1
20260507064516 11 0.0 6.4 0.00 0.74 0.13 1 1011.9
20260507063515 11 0.0 4.8 0.00 0.74 0.13 1 1012.1
20260507062515 11 0.0 6.4 0.00 0.74 0.13 1 1012.3
20260507061515 11 0.0 4.8 0.03 0.74 0.13 1 1012.4
20260507060515 11 0.0 4.8 0.03 0.74 0.13 1 1012.2
20260507055515 11 0.0 0.0 0.03 0.74 0.13 1 1012.1
20260507054515 11 0.0 0.0 0.03 0.74 0.13 1 1012.1
20260507053515 12 0.0 4.8 0.05 0.74 0.13 1 1012.3
20260507052515 12 0.0 4.8 0.05 0.74 0.13 1 1012.1
20260507051516 12 0.0 0.0 0.03 0.71 0.10 1 1012.2
20260507050515 12 0.0 12.9 0.10 0.71 0.10 1 1012.2
20260507045515 12 90 1.6 6.4 0.10 0.71 0.10 1 1011.6
20260507044515 13 0.0 3.2 0.10 0.71 0.10 1 1012.2
20260507043515 13 0.0 0.0 0.08 0.69 0.08 1 1012.4
20260507042515 13 0.0 0.0 0.08 0.69 0.08 1 1011.6
20260507041515 14 90 1.6 4.8 0.08 0.69 0.08 1 1012.3
20260507040516 14 0.0 0.0 0.00 0.61 0.00 1 1012.4
20260507040015 15 0.0 6.4 0.00 0.61 0.61 1 1011.9
20260507035015 15 0.0 0.0 0.00 0.61 0.61 1 1012.1
20260507034015 15 0.0 0.0 0.00 0.61 0.61 6 1011.5
20260507033015 15 68 1.6 8.0 0.00 0.61 0.61 4 1011.5
20260507032015 15 0.0 0.0 0.00 0.61 0.61 1 1011.5
20260507031016 15 0.0 0.0 0.00 0.61 0.61 1 1011.5
20260507030016 15 0.0 0.0 0.00 0.61 0.61 1 1011.8
20260507025016 15 0.0 4.8 0.00 0.61 0.61 1 1011.1
20260507024015 15 0.0 8.0 0.00 0.61 0.61 1 1010.8
20260507023015 15 23 1.6 9.7 0.00 0.61 0.61 1 1010.8
20260507022015 15 90 1.6 17.7 0.00 0.61 0.61 1 1010.9
20260507021015 16 0.0 0.0 0.00 0.61 0.61 1 1011.0
20260507020035 16 0.0 6.4 0.00 0.61 0.61 1 1010.7
20260507015015 16 0.0 0.0 0.00 0.61 0.61 1 1010.7
20260507014015 16 0.0 1.6 0.00 0.61 0.61 1 1010.6
20260507013035 16 0.0 3.2 0.00 0.61 0.61 1 1010.6
20260507012035 17 0.0 1.6 0.00 0.61 0.61 1 1010.6
20260507011015 17 0.0 0.0 0.03 0.61 0.61 1 1011.1
20260507010015 17 0.0 0.0 0.03 0.61 0.61 1 1010.9
20260507005015 17 0.0 0.0 0.03 0.61 0.61 1 1010.8
20260507004015 18 0.0 3.2 0.05 0.61 0.61 1 1010.7
20260507003015 18 0.0 0.0 0.05 0.61 0.61 1 1010.5
20260507002055 18 0.0 0.0 0.08 0.61 0.61 1 1010.6
20260507001035 18 0.0 0.0 0.05 0.58 0.58 1 1010.5
20260507000015 18 0.0 0.0 0.05 0.58 0.58 1 1010.0
20260506235015 18 0.0 0.0 0.05 0.58 0.58 1 1010.1
20260506234015 18 0.0 0.0 0.03 0.56 0.56 1 1010.1
20260506233015 18 0.0 0.0 0.03 0.56 0.56 1 1009.9
20260506232015 19 0.0 0.0 0.00 0.53 0.53 1 1009.6
20260506231015 20 0.0 0.0 0.00 0.53 0.53 8 1009.6
20260506230035 20 0.0 0.0 0.00 0.53 0.53 16 1009.4
20260506225015 20 0.0 0.0 0.00 0.53 0.53 16 1009.4
20260506224015 20 0.0 0.0 0.00 0.53 0.53 21 1009.3
20260506223015 20 0.0 6.4 0.00 0.53 0.53 20 1009.3
20260506222035 20 0.0 8.0 0.00 0.53 0.53 24 1009.3
20260506221035 20 0.0 9.7 0.00 0.53 0.53 21 1009.2
20260506220015 20 225 1.6 8.0 0.00 0.53 0.53 27 1009.2
20260506215035 20 0.0 9.7 0.00 0.53 0.53 28 1009.2
20260506214015 20 0.0 4.8 0.00 0.53 0.53 27 1009.2
20260506213015 20 225 1.6 14.5 0.00 0.53 0.53 26 1009.3
20260506212015 20 0.0 0.0 0.00 0.53 0.53 23 1009.2
20260506211015 20 203 3.2 12.9 0.00 0.53 0.53 27 1009.1
20260506210020 20 0.0 6.4 0.00 0.53 0.53 25 1009.1
20260506205015 21 0.0 9.7 0.00 0.53 0.53 25 1009.1
20260506204035 21 180 1.6 9.7 0.00 0.53 0.53 25 1008.9
20260506203015 20 203 1.6 8.0 0.00 0.53 0.53 25 1008.6
20260506202015 20 248 1.6 11.3 0.00 0.53 0.53 17 1008.7
20260506201015 20 0.0 3.2 0.00 0.53 0.53 15 1008.9
20260506200015 20 0.0 6.4 0.00 0.53 0.53 16 1008.8
20260506195015 20 0.0 4.8 0.00 0.53 0.53 20 1009.0
20260506194015 20 225 1.6 8.0 0.00 0.53 0.53 16 1009.0
20260506193015 20 225 1.6 8.0 0.00 0.53 0.53 16 1009.0
20260506192015 20 180 3.2 25.7 0.00 0.53 0.53 10 1009.2
20260506191015 19 225 1.6 17.7 0.00 0.53 0.53 17 1009.2
20260506190015 19 203 1.6 12.9 0.00 0.53 0.53 13 1009.4
20260506185015 18 158 1.6 12.9 0.00 0.53 0.53 5 1009.5
20260506184035 18 0.0 6.4 0.00 0.53 0.53 1 1009.4
20260506183015 18 0.0 4.8 0.00 0.53 0.53 1 1009.6
20260506182015 17 0.0 8.0 0.00 0.53 0.53 1 1009.7